H1 CPF 2 NER 2021 12 8 9 342 01 glonass127 H2 1106403 9127 37869 2021 12 8 0 0 0 2021 12 11 23 45 0 900 1 1 0 0 0 1 H9 10 0 59556 0.00000 0 15511271.648 20264844.150 536276.992 10 0 59556 900.00000 0 15459987.235 19972741.033 3731972.377 10 0 59556 1800.00000 0 15118779.970 19404901.320 6855372.391 10 0 59556 2700.00000 0 14459952.584 18610073.638 9846049.223 10 0 59556 3600.00000 0 13467391.073 17643273.503 12646211.972 10 0 59556 4500.00000 0 12137459.616 16563363.282 15201807.156 10 0 59556 5400.00000 0 10479383.499 15430495.147 17463543.224 10 0 59556 6300.00000 0 8515104.673 14303523.551 19387821.114 10 0 59556 7200.00000 0 6278616.276 13237494.306 20937554.865 10 0 59556 8100.00000 0 3814803.359 12281313.561 22082868.531 10 0 59556 9000.00000 0 1177836.847 11475692.155 22801657.895 10 0 59556 9900.00000 0 -1570814.358 10851449.365 23080007.673 10 0 59556 10800.00000 0 -4364673.115 10428245.292 22912457.319 10 0 59556 11700.00000 0 -7134753.603 10213793.767 22302110.742 10 0 59556 12600.00000 0 -9812169.989 10203588.318 21260587.628 10 0 59556 13500.00000 0 -12330749.075 10381153.017 19807816.418 10 0 59556 14400.00000 0 -14629541.100 10718808.782 17971671.439 10 0 59556 15300.00000 0 -16655126.338 11178924.695 15787459.175 10 0 59556 16200.00000 0 -18363622.858 11715603.824 13297261.347 10 0 59556 17100.00000 0 -19722312.237 12276734.773 10549145.025 10 0 59556 18000.00000 0 -20710814.946 12806324.512 7596252.854 10 0 59556 18900.00000 0 -21321765.228 13247015.477 4495789.057 10 0 59556 19800.00000 0 -21560955.687 13542681.381 1307919.373 10 0 59556 20700.00000 0 -21446943.707 13640991.814 -1905394.385 10 0 59556 21600.00000 0 -21010134.605 13495836.075 -5081602.720 10 0 59556 22500.00000 0 -20291378.717 13069501.742 -8158795.702 10 0 59556 23400.00000 0 -19340140.673 12334513.193 -11076923.990 10 0 59556 24300.00000 0 -18212317.908 11275049.278 -13778988.246 10 0 59556 25200.00000 0 -16967800.903 9887876.999 -16212171.894 10 0 59556 26100.00000 0 -15667879.276 8182758.746 -18328893.039 10 0 59556 27000.00000 0 -14372604.727 6182313.202 -20087753.165 10 0 59556 27900.00000 0 -13138223.958 3921333.637 -21454362.380 10 0 59556 28800.00000 0 -12014791.705 1445590.856 -22402023.703 10 0 59556 29700.00000 0 -11044066.177 -1189829.674 -22912262.114 10 0 59556 30600.00000 0 -10257776.770 -3922586.933 -22975187.534 10 0 59556 31500.00000 0 -9676337.739 -6685452.930 -22589684.556 10 0 59556 32400.00000 0 -9308061.893 -9408890.965 -21763425.606 10 0 59556 33300.00000 0 -9148906.704 -12023734.893 -20512707.945 10 0 59556 34200.00000 0 -9182762.112 -14463856.600 -18862118.716 10 0 59556 35100.00000 0 -9382265.935 -16668709.790 -16844035.793 10 0 59556 36000.00000 0 -9710110.184 -18585643.828 -14497975.571 10 0 59556 36900.00000 0 -10120780.707 -20171891.441 -11869801.922 10 0 59556 37800.00000 0 -10562654.282 -21396148.443 -9010813.288 10 0 59556 38700.00000 0 -10980362.438 -22239681.282 -5976727.139 10 0 59556 39600.00000 0 -11317320.382 -22696918.368 -2826582.963 10 0 59556 40500.00000 0 -11518313.019 -22775503.254 378413.723 10 0 59556 41400.00000 0 -11532028.229 -22495810.405 3576083.139 10 0 59556 42300.00000 0 -11313430.506 -21889946.711 6704475.074 10 0 59556 43200.00000 0 -10825875.397 -21000283.250 9703061.580 10 0 59556 44100.00000 0 -10042876.601 -19877580.859 12513895.909 10 0 59556 45000.00000 0 -8949452.575 -18578789.445 15082716.240 10 0 59556 45900.00000 0 -7542997.228 -17164613.725 17359974.334 10 0 59556 46800.00000 0 -5833639.080 -15696946.977 19301771.093 10 0 59556 47700.00000 0 -3844074.330 -14236279.085 20870682.888 10 0 59556 48600.00000 0 -1608880.615 -12839185.514 22036464.852 10 0 59556 49500.00000 0 826660.885 -11556000.003 22776619.485 10 0 59556 50400.00000 0 3408187.535 -10428765.963 23076821.172 10 0 59556 51300.00000 0 6074256.421 -9489550.008 22931189.586 10 0 59556 52200.00000 0 8758644.364 -8759186.319 22342407.190 10 0 59556 53100.00000 0 11392854.267 -8246503.255 21321678.392 10 0 59556 54000.00000 0 13908726.940 -7948064.128 19888530.311 10 0 59556 54900.00000 0 16241052.765 -7848433.381 18070457.469 10 0 59556 55800.00000 0 18330076.926 -7920958.103 15902415.340 10 0 59556 56700.00000 0 20123795.596 -8129033.629 13426170.234 10 0 59556 57600.00000 0 21579948.160 -8427801.874 10689515.645 10 0 59556 58500.00000 0 22667622.177 -8766212.750 7745368.001 10 0 59556 59400.00000 0 23368403.079 -9089363.239 4650757.363 10 0 59556 60300.00000 0 23677018.997 -9341016.330 1465731.116 10 0 59556 61200.00000 0 23601451.677 -9466193.515 -1747808.788 10 0 59556 62100.00000 0 23162506.925 -9413730.530 -4927312.648 10 0 59556 63000.00000 0 22392860.789 -9138686.582 -8010809.933 10 0 59556 63900.00000 0 21335620.291 -8604502.844 -10938131.192 10 0 59556 64800.00000 0 20042458.574 -7784816.000 -13652099.637 10 0 59556 65700.00000 0 18571402.963 -6664846.979 -16099667.289 10 0 59556 66600.00000 0 16984369.808 -5242303.035 -18232971.452 10 0 59556 67500.00000 0 15344551.155 -3527752.152 -20010289.018 10 0 59556 68400.00000 0 13713764.911 -1544451.482 -21396868.251 10 0 59556 69300.00000 0 12149881.854 672364.766 -22365620.381 10 0 59556 70200.00000 0 10704439.407 3076709.243 -22897656.568 10 0 59556 71100.00000 0 9420543.881 5613526.310 -22982659.242 10 0 59556 72000.00000 0 8331150.234 8220766.976 -22619080.426 10 0 59556 72900.00000 0 7457791.789 10831766.481 -21814163.555 10 0 59556 73800.00000 0 6809812.688 13377824.178 -20583789.034 10 0 59556 74700.00000 0 6384134.091 15790876.808 -18952147.525 10 0 59556 75600.00000 0 6165561.938 18006152.681 -16951248.592 10 0 59556 76500.00000 0 6127620.869 19964695.349 -14620275.653 10 0 59556 77400.00000 0 6233876.430 21615651.250 -12004801.350 10 0 59556 78300.00000 0 6439686.973 22918226.315 -9155880.172 10 0 59556 79200.00000 0 6694308.652 23843230.935 -6129037.457 10 0 59556 80100.00000 0 6943262.351 24374150.429 -2983175.886 10 0 59556 81000.00000 0 7130860.800 24507698.549 220578.124 10 0 59556 81900.00000 0 7202787.938 24253833.457 3420064.933 10 0 59556 82800.00000 0 7108621.206 23635238.221 6553295.424 10 0 59556 83700.00000 0 6804190.405 22686290.184 9559644.719 10 0 59556 84600.00000 0 6253674.366 21451564.523 12381013.250 10 0 59556 85500.00000 0 5431348.166 19983936.255 14962933.632 10 0 59557 0.00000 0 4322908.693 18342361.054 17255603.247 10 0 59557 900.00000 0 2926323.267 16589426.767 19214825.557 10 0 59557 1800.00000 0 1252168.086 14788779.347 20802840.911 10 0 59557 2700.00000 0 -676559.536 13002526.170 21989037.050 10 0 59557 3600.00000 0 -2825146.396 11288725.202 22750524.356 10 0 59557 4500.00000 0 -5148358.468 9699061.470 23072567.658 10 0 59557 5400.00000 0 -7592077.984 8276805.483 22948867.207 10 0 59557 6300.00000 0 -10095317.047 7055136.532 22381683.920 10 0 59557 7200.00000 0 -12592527.001 6055899.161 21381806.351 10 0 59557 8100.00000 0 -15016110.747 5288843.700 19968359.207 10 0 59557 9000.00000 0 -17299036.606 4751382.233 18168455.630 10 0 59557 9900.00000 0 -19377447.478 4428870.750 16016698.037 10 0 59557 10800.00000 0 -21193158.686 4295406.615 13554534.871 10 0 59557 11700.00000 0 -22695941.422 4315109.372 10829483.259 10 0 59557 12600.00000 0 -23845496.641 4443832.677 7894230.387 10 0 59557 13500.00000 0 -24613036.212 4631236.710 4805628.980 10 0 59557 14400.00000 0 -24982403.672 4823134.754 1623604.829 10 0 59557 15300.00000 0 -24950685.594 4964015.305 -1590003.192 10 0 59557 16200.00000 0 -24528285.680 4999632.736 -4772648.347 10 0 59557 17100.00000 0 -23738456.281 4879555.752 -7862302.566 10 0 59557 18000.00000 0 -22616305.149 4559563.857 -10798679.227 10 0 59557 18900.00000 0 -21207317.901 4003787.806 -13524426.848 10 0 59557 19800.00000 0 -19565457.722 3186500.502 -15986268.569 10 0 59557 20700.00000 0 -17750922.363 2093479.464 -18136063.098 10 0 59557 21600.00000 0 -15827653.571 722880.278 -19931764.551 10 0 59557 22500.00000 0 -13860704.878 -914418.574 -21338260.711 10 0 59557 23400.00000 0 -11913580.059 -2795016.138 -22328071.893 10 0 59557 24300.00000 0 -10045655.597 -4883727.783 -22881895.818 10 0 59557 25200.00000 0 -8309796.838 -7134832.163 -22988987.307 10 0 59557 26100.00000 0 -6750268.876 -9493774.103 -22647365.243 10 0 59557 27000.00000 0 -5401030.237 -11899251.618 -21863843.105 10 0 59557 27900.00000 0 -4284480.548 -14285598.878 -20653883.113 10 0 59557 28800.00000 0 -3410713.751 -16585364.243 -19041277.831 10 0 59557 29700.00000 0 -2777306.305 -18731974.487 -17057666.654 10 0 59557 30600.00000 0 -2369646.880 -20662372.945 -14741897.982 10 0 59557 31500.00000 0 -2161790.786 -22319520.668 -12139251.061 10 0 59557 32400.00000 0 -2117800.097 -23654656.010 -9300534.185 10 0 59557 33300.00000 0 -2193509.888 -24629218.742 -6281078.286 10 0 59557 34200.00000 0 -2338643.344 -25216359.298 -3139646.957 10 0 59557 35100.00000 0 -2499184.085 -25401971.814 62714.762 10 0 59557 36000.00000 0 -2619903.837 -25185209.827 3263869.650 10 0 59557 36900.00000 0 -2646937.727 -24578465.489 6401791.962 10 0 59557 37800.00000 0 -2530298.147 -23606815.578 9415762.172 10 0 59557 38700.00000 0 -2226221.504 -22306959.660 12247530.163 10 0 59557 39600.00000 0 -1699249.786 -20725696.560 14842425.236 10 0 59557 40500.00000 0 -923960.469 -18918003.875 17150392.930 10 0 59557 41400.00000 0 113726.792 -16944800.996 19126940.461 10 0 59557 42300.00000 0 1415720.476 -14870488.487 20733974.421 10 0 59557 43200.00000 0 2971438.757 -12760365.094 21940516.718 10 0 59557 44100.00000 0 4758015.705 -10678027.981 22723286.895 10 0 59557 45000.00000 0 6741024.268 -8682862.162 23067141.183 10 0 59557 45900.00000 0 8875687.476 -6827720.984 22965361.038 10 0 59557 46800.00000 0 11108529.651 -5156891.749 22419786.140 10 0 59557 47700.00000 0 13379401.605 -3704429.096 21440789.190 10 0 59557 48600.00000 0 15623798.593 -2492923.978 20047092.179 10 0 59557 49500.00000 0 17775377.652 -1532758.694 18265426.267 10 0 59557 50400.00000 0 19768572.153 -821878.966 16130039.910 10 0 59557 51300.00000 0 21541196.904 -346093.138 13682062.452 10 0 59557 52200.00000 0 23036936.521 -79886.963 10968733.082 10 0 59557 53100.00000 0 24207613.604 12278.791 8042507.803 10 0 59557 54000.00000 0 25015141.495 -25758.894 4960059.697 10 0 59557 54900.00000 0 25433078.534 -143950.539 1781190.321 10 0 59557 55800.00000 0 25447716.680 -288390.196 -1432327.478 10 0 59557 56700.00000 0 25058656.438 -403842.710 -4617953.076 10 0 59557 57600.00000 0 24278841.426 -436334.596 -7713604.102 10 0 59557 58500.00000 0 23134048.795 -335697.400 -10658879.977 10 0 59557 59400.00000 0 21661855.022 -57953.682 -13396257.609 10 0 59557 60300.00000 0 19910119.286 432558.089 -15872234.111 10 0 59557 61200.00000 0 17935047.643 1161412.581 -18038392.191 10 0 59557 62100.00000 0 15798919.559 2142758.473 -19852365.491 10 0 59557 63000.00000 0 13567573.037 3378470.557 -21278683.317 10 0 59557 63900.00000 0 11307755.254 4857831.125 -22289476.771 10 0 59557 64800.00000 0 9084451.255 6557755.891 -22865031.523 10 0 59557 65700.00000 0 6958304.155 8443556.040 -22994175.852 10 0 59557 66600.00000 0 4983236.125 10470204.728 -22674496.216 10 0 59557 67500.00000 0 3204370.449 12584054.696 -21912376.466 10 0 59557 68400.00000 0 1656341.647 14724934.185 -20722860.568 10 0 59557 69300.00000 0 362063.743 16828532.244 -19129342.500 10 0 59557 70200.00000 0 -667993.297 18828972.226 -17163090.578 10 0 59557 71100.00000 0 -1435990.850 20661464.628 -14862616.861 10 0 59557 72000.00000 0 -1956367.577 22264927.142 -12272905.465 10 0 59557 72900.00000 0 -2254962.081 23584461.774 -9444516.370 10 0 59557 73800.00000 0 -2367652.551 24573585.312 -6432583.637 10 0 59557 74700.00000 0 -2338573.803 25196120.298 -3295728.998 10 0 59557 75600.00000 0 -2217989.766 25427668.518 -94913.101 10 0 59557 76500.00000 0 -2059913.415 25256606.964 3107752.436 10 0 59557 77400.00000 0 -1919576.151 24684566.567 6250208.510 10 0 59557 78300.00000 0 -1850854.239 23726375.848 9271644.237 10 0 59557 79200.00000 0 -1903760.941 22409473.866 12113662.168 10 0 59557 80100.00000 0 -2122109.506 20772818.801 14721391.366 10 0 59557 81000.00000 0 -2541444.366 18865338.933 17044528.246 10 0 59557 81900.00000 0 -3187326.359 16743991.146 19038286.866 10 0 59557 82800.00000 0 -4074042.702 14471507.657 20664242.255 10 0 59557 83700.00000 0 -5203794.893 12113923.713 21891052.613 10 0 59557 84600.00000 0 -6566398.130 9737987.307 22695048.421 10 0 59557 85500.00000 0 -8139505.010 7408556.404 23060678.701 10 0 59558 0.00000 0 -9889345.019 5186089.342 22980807.098 10 0 59558 900.00000 0 -11771951.700 3124328.870 22456852.507 10 0 59558 1800.00000 0 -13734826.256 1268276.638 21498771.680 10 0 59558 2700.00000 0 -15718974.229 -347463.644 20124883.259 10 0 59558 3600.00000 0 -17661231.026 -1699903.747 18361535.212 10 0 59558 4500.00000 0 -19496783.076 -2778400.273 16242620.261 10 0 59558 5400.00000 0 -21161781.682 -3584865.096 13808946.378 10 0 59558 6300.00000 0 -22595942.228 -4133447.447 11107472.096 10 0 59558 7200.00000 0 -23745020.861 -4449699.814 8190419.175 10 0 59558 8100.00000 0 -24563064.994 -4569261.366 5114277.745 10 0 59558 9000.00000 0 -25014342.266 -4536113.102 1938721.657 10 0 59558 9900.00000 0 -25074865.240 -4400477.280 -1274545.790 10 0 59558 10800.00000 0 -24733445.412 -4216449.470 -4462993.599 10 0 59558 11700.00000 0 -23992229.513 -4039463.600 -7564488.553 10 0 59558 12600.00000 0 -22866692.860 -3923698.294 -10518519.441 10 0 59558 13500.00000 0 -21385087.586 -3919536.038 -13267394.712 10 0 59558 14400.00000 0 -19587367.058 -4071185.051 -15757388.364 10 0 59558 15300.00000 0 -17523630.481 -4414567.236 -17939809.678 10 0 59558 16200.00000 0 -15252152.572 -4975564.403 -19771973.979 10 0 59558 17100.00000 0 -12837081.225 -5768699.661 -21218053.745 10 0 59558 18000.00000 0 -10345900.604 -6796312.070 -22249791.955 10 0 59558 18900.00000 0 -7846767.190 -8048261.302 -22847062.730 10 0 59558 19800.00000 0 -5405831.627 -9502176.051 -22998267.722 10 0 59558 20700.00000 0 -3084659.764 -11124236.303 -22700560.348 10 0 59558 21600.00000 0 -937861.593 -12870456.556 -21959893.749 10 0 59558 22500.00000 0 988972.433 -14688415.436 -20790892.178 10 0 59558 23400.00000 0 2660941.721 -16519357.990 -19216549.256 10 0 59558 24300.00000 0 4055043.794 -18300581.134 -17267760.216 10 0 59558 25200.00000 0 5160871.776 -19968000.783 -14982698.589 10 0 59558 26100.00000 0 5980774.450 -21458791.717 -12406051.052 10 0 59558 27000.00000 0 6529475.237 -22713988.523 -9588126.877 10 0 59558 27900.00000 0 6833169.517 -23680938.072 -6583860.801 10 0 59558 28800.00000 0 6928141.587 -24315500.708 -3451730.222 10 0 59558 29700.00000 0 6858962.741 -24583908.483 -252608.919 10 0 59558 30600.00000 0 6676349.107 -24464203.734 2951419.558 10 0 59558 31500.00000 0 6434771.631 -23947199.239 6098265.169 10 0 59558 32400.00000 0 6189920.374 -23036921.624 9127028.031 10 0 59558 33300.00000 0 5996130.547 -21750521.283 11979165.646 10 0 59558 34200.00000 0 5903878.563 -20117654.293 14599609.010 10 0 59558 35100.00000 0 5957452.722 -18179363.372 16937807.428 10 0 59558 36000.00000 0 6192895.286 -15986505.216 18948683.627 10 0 59558 36900.00000 0 6636300.991 -13597789.676 20593482.658 10 0 59558 37800.00000 0 7302542.104 -11077511.563 21840500.322 10 0 59558 38700.00000 0 8194472.522 -8493067.686 22665679.048 10 0 59558 39600.00000 0 9302643.835 -5912360.205 23053061.352 10 0 59558 40500.00000 0 10605545.598 -3401191.378 22995093.388 10 0 59558 41400.00000 0 12070360.895 -1020755.055 22492773.374 10 0 59558 42300.00000 0 13654207.480 1174673.573 21555641.940 10 0 59558 43200.00000 0 15305815.081 3139756.430 20201613.904 10 0 59558 44100.00000 0 16967571.662 4839737.097 18456653.319 10 0 59558 45000.00000 0 18577855.937 6251644.047 16354296.201 10 0 59558 45900.00000 0 20073561.273 7365002.802 13935027.919 10 0 59558 46800.00000 0 21392707.474 8182026.965 11245524.856 10 0 59558 47700.00000 0 22477032.329 8717279.215 8337772.745 10 0 59558 48600.00000 0 23274454.681 8996815.302 5268076.703 10 0 59558 49500.00000 0 23741305.056 9056845.727 2095980.542 10 0 59558 50400.00000 0 23844228.624 8941970.289 -1116884.554 10 0 59558 51300.00000 0 23561678.272 8703059.284 -4307999.959 10 0 59558 52200.00000 0 22884932.222 8394870.710 -7415184.435 10 0 59558 53100.00000 0 21818590.437 8073504.794 -10377818.963 10 0 59558 54000.00000 0 20380526.099 7793804.814 -13138046.255 10 0 59558 54900.00000 0 18601291.701 7606816.144 -15641919.759 10 0 59558 55800.00000 0 16523002.910 7557413.399 -17840477.687 10 0 59558 56700.00000 0 14197745.904 7682198.719 -19690719.186 10 0 59558 57600.00000 0 11685574.635 8007762.669 -21156461.842 10 0 59558 58500.00000 0 9052182.332 8549383.651 -22209062.224 10 0 59558 59400.00000 0 6366345.569 9310222.690 -22827984.403 10 0 59558 60300.00000 0 3697248.986 10281048.973 -23001204.672 10 0 59558 61200.00000 0 1111803.814 11440508.405 -22725444.389 10 0 59558 62100.00000 0 -1327926.741 12755923.938 -22006226.640 10 0 59558 63000.00000 0 -3567087.092 14184593.445 -20857756.228 10 0 59558 63900.00000 0 -5560075.161 15675529.448 -19302626.274 10 0 59558 64800.00000 0 -7272189.820 17171566.177 -17371358.347 10 0 59558 65700.00000 0 -8680812.454 18611743.830 -15101786.455 10 0 59558 66600.00000 0 -9776075.322 19933868.275 -12538298.441 10 0 59558 67500.00000 0 -10560991.568 21077137.356 -9730951.106 10 0 59558 68400.00000 0 -11051044.649 21984722.532 -6734477.788 10 0 59558 69300.00000 0 -11273257.831 22606196.942 -3607209.196 10 0 59558 70200.00000 0 -11264786.287 22899708.055 -409929.652 10 0 59558 71100.00000 0 -11071094.120 22833804.372 2795308.124 10 0 59558 72000.00000 0 -10743795.595 22388840.639 5946386.082 10 0 59558 72900.00000 0 -10338253.386 21557904.172 8982318.353 10 0 59558 73800.00000 0 -9911036.027 20347225.077 11844420.460 10 0 59558 74700.00000 0 -9517341.879 18776054.783 14477428.402 10 0 59558 75600.00000 0 -9208497.491 16876019.198 16830547.387 10 0 59558 76500.00000 0 -9029634.478 14689974.222 18858411.718 10 0 59558 77400.00000 0 -9017641.005 12270411.410 20521939.213 10 0 59558 78300.00000 0 -9199472.318 9677479.488 21789065.796 10 0 59558 79200.00000 0 -9590889.727 6976702.492 22635348.080 10 0 59558 80100.00000 0 -10195679.899 4236487.267 23044423.955 10 0 59558 81000.00000 0 -11005386.780 1525521.174 23008323.589 10 0 59558 81900.00000 0 -11999567.794 -1089835.006 22527625.499 10 0 59558 82800.00000 0 -13146564.753 -3548053.566 21611454.645 10 0 59558 83700.00000 0 -14404759.132 -5794744.475 20277321.920 10 0 59558 84600.00000 0 -15724261.634 -7784664.563 18550806.771 10 0 59558 85500.00000 0 -17048967.946 -9483349.124 16465087.241 10 0 59559 0.00000 0 -18318897.192 -10868298.777 14060324.514 10 0 59559 900.00000 0 -19472717.989 -11929672.705 11382910.082 10 0 59559 1800.00000 0 -20450356.137 -12670456.889 8484591.139 10 0 59559 2700.00000 0 -21195577.526 -13106101.666 5421484.737 10 0 59559 3600.00000 0 -21658435.852 -13263640.567 2253001.346 10 0 59559 4500.00000 0 -21797481.758 -13180326.967 -959303.435 10 0 59559 5400.00000 0 -21581638.362 -12901844.818 -4152926.910 10 0 59559 6300.00000 0 -20991661.519 -12480168.445 -7265643.422 10 0 59559 7200.00000 0 -20021120.336 -11971161.885 -10236729.718 10 0 59559 8100.00000 0 -18676853.529 -11432020.064 -13008166.260 10 0 59559 9000.00000 0 -16978879.489 -10918661.508 -15525789.254 10 0 59559 9900.00000 0 -14959761.445 -10483184.835 -17740368.883 10 0 59559 10800.00000 0 -12663452.621 -10171498.967 -19608590.780 10 0 59559 11700.00000 0 -10143668.772 -10021229.658 -21093919.813 10 0 59559 12600.00000 0 -7461856.135 -10059993.125 -22167327.762 10 0 59559 13500.00000 0 -4684840.214 -10304111.626 -22807869.647 10 0 59559 14400.00000 0 -1882254.544 -10757826.633 -23003096.783 10 0 59559 15300.00000 0 876141.888 -11413043.559 -22749298.260 10 0 59559 16200.00000 0 3523145.530 -12249618.926 -22051566.378 10 0 59559 17100.00000 0 5996674.650 -13236177.342 -20923685.319 10 0 59559 18000.00000 0 8242113.633 -14331422.779 -19387846.159 10 0 59559 18900.00000 0 10214337.546 -15485887.432 -17474194.961 10 0 59559 19800.00000 0 11879333.366 -16644042.787 -15220224.096 10 0 59559 20700.00000 0 13215351.690 -17746682.229 -12670020.227 10 0 59559 21600.00000 0 14213543.154 -18733473.226 -9873385.140 10 0 59559 22500.00000 0 14878055.817 -19545570.344 -6884848.046 10 0 59559 23400.00000 0 15225592.680 -20128178.238 -3762590.097 10 0 59559 24300.00000 0 15284451.346 -20432956.405 -567303.204 10 0 59559 25200.00000 0 15093089.427 -20420164.832 2638993.733 10 0 59559 26100.00000 0 14698278.910 -20060461.030 5794157.584 10 0 59559 27000.00000 0 14152929.380 -19336274.181 8837119.320 10 0 59559 27900.00000 0 13513673.217 -18242700.081 11709055.121 10 0 59559 28800.00000 0 12838315.015 -16787880.826 14354508.396 10 0 59559 29700.00000 0 12183252.323 -14992854.571 16722442.384 10 0 59559 30600.00000 0 11600975.221 -12890882.400 18767204.788 10 0 59559 31500.00000 0 11137748.294 -10526280.685 20449387.681 10 0 59559 32400.00000 0 10831570.545 -7952806.996 21736568.264 10 0 59559 33300.00000 0 10710496.982 -5231665.476 22603918.130 10 0 59559 34200.00000 0 10791390.707 -2429212.628 23034670.992 10 0 59559 35100.00000 0 11079156.700 385543.822 23020441.152 10 0 59559 36000.00000 0 11566489.044 3143552.136 22561387.221 10 0 59559 36900.00000 0 12234142.574 5778324.701 21666217.986 10 0 59559 37800.00000 0 13051718.786 8228441.753 20352039.646 10 0 59559 38700.00000 0 13978934.933 10439849.332 18644046.024 10 0 59559 39600.00000 0 14967325.449 12367857.695 16575055.939 10 0 59559 40500.00000 0 15962306.806 13978758.265 14184904.459 10 0 59559 41400.00000 0 16905521.527 15250992.032 11519697.358 10 0 59559 42300.00000 0 17737364.756 16175820.192 8630940.971 10 0 59559 43200.00000 0 18399588.354 16757468.009 5574562.149 10 0 59559 44100.00000 0 18837873.253 17012734.520 2409835.706 10 0 59559 45000.00000 0 19004261.062 16970082.978 -801760.828 10 0 59559 45900.00000 0 18859340.880 16668248.994 -3997743.270 10 0 59559 46800.00000 0 18374096.764 16154424.112 -7115844.147 10 0 59559 47700.00000 0 17531335.015 15482091.055 -10095238.537 10 0 59559 48600.00000 0 16326627.951 14708602.393 -12877747.090 10 0 59559 49500.00000 0 14768731.133 13892605.890 -15408991.047 10 0 59559 50400.00000 0 12879453.684 13091426.922 -17639474.650 10 0 59559 51300.00000 0 10692984.767 12358520.585 -19525571.912 10 0 59559 52200.00000 0 8254702.801 11741103.338 -21030396.691 10 0 59559 53100.00000 0 5619516.577 11278066.404 -22124537.504 10 0 59559 54000.00000 0 2849807.514 10998260.917 -22786641.664 10 0 59559 54900.00000 0 13059.593 10919228.609 -23003836.638 10 0 59559 55800.00000 0 -2820723.052 11046432.439 -22771980.122 10 0 59559 56700.00000 0 -5581701.996 11373019.723 -22095734.180 10 0 59559 57600.00000 0 -8202880.797 11880127.261 -20988462.551 10 0 59559 58500.00000 0 -10622659.139 12537714.440 -19471954.033 10 0 59559 59400.00000 0 -12787158.123 13305887.597 -17575978.528 10 0 59559 60300.00000 0 -14652220.026 14136657.871 -15337685.734 10 0 59559 61200.00000 0 -16185000.011 14976056.397 -12800859.751 10 0 59559 62100.00000 0 -17365085.148 15766515.670 -10015045.676 10 0 59559 63000.00000 0 -18185096.346 16449414.947 -7034566.698 10 0 59559 63900.00000 0 -18650750.904 16967681.066 -3917452.329 10 0 59559 64800.00000 0 -18780386.309 17268334.251 -724299.840 10 0 59559 65700.00000 0 -18603968.531 17304871.430 2482908.057 10 0 59559 66600.00000 0 -18161629.492 17039387.028 5642005.649 10 0 59559 67500.00000 0 -17501797.741 16444342.831 8691843.366 10 0 59559 68400.00000 0 -16679002.819 15503913.691 11573460.773 10 0 59559 69300.00000 0 -15751446.638 14214853.857 14231211.481 10 0 59559 70200.00000 0 -14778444.182 12586848.853 16613819.581 10 0 59559 71100.00000 0 -13817840.361 10642339.011 18675348.953 10 0 59559 72000.00000 0 -12923510.148 8415822.463 20376068.601 10 0 59559 72900.00000 0 -12143045.048 5952666.343 21683199.485 10 0 59559 73800.00000 0 -11515720.796 3307474.605 22571530.422 10 0 59559 74700.00000 0 -11070829.485 542078.673 23023892.874 10 0 59559 75600.00000 0 -10826444.263 -2276768.123 23031486.816 10 0 59559 76500.00000 0 -10788667.232 -5079899.483 22594052.081 10 0 59559 77400.00000 0 -10951391.689 -7798347.400 21719881.947 10 0 59559 78300.00000 0 -11296589.053 -10365950.496 20425678.083 10 0 59559 79200.00000 0 -11795109.639 -12721853.921 18736248.350 10 0 59559 80100.00000 0 -12407965.491 -14812799.084 16684051.500 10 0 59559 81000.00000 0 -13088043.554 -16595109.491 14308595.379 10 0 59559 81900.00000 0 -13782179.476 -18036290.637 11655697.840 10 0 59559 82800.00000 0 -14433506.833 -19116176.991 8776622.388 10 0 59559 83700.00000 0 -14983984.352 -19827577.315 5727103.179 10 0 59559 84600.00000 0 -15376995.407 -20176389.949 2566276.581 10 0 59559 85500.00000 0 -15559909.956 -20181181.557 -644460.942 99